Location: Bruderhein
(53.8035°N, 112.9265°W)
Time: 06:56:27
(UTC+00:00)

RS-15 - Pass Details

Date: 05 April 2023
Orbit: 1885 x 2159 km, 64.8° (Epoch: 29 May)

Event Time Altitude Azimuth Distance (km) Brightness Sun altitude
Rises 02:39:13 0° 279° (W) 5,686 13.0 -4.6°
Reaches altitude 10° 02:42:57 10° 285° (WNW) 4,677 12.0 -5.1°
Maximum altitude 02:54:51 50° 360° (N) 2,560 8.8 -6.8°
Drops below altitude 10° 03:06:19 10° 74° (ENE) 4,518 9.5 -8.4°
Enters shadow 03:09:31 - 80° (E) 5,393 9.8 -8.8°
